Temp
18 19 19 19 19 18 18 18 17 18 18 18 18 18 18 18 18 17 17 17 16 15 14 13 13 13 12 12 12 11 11 11 11 11 11 11 11 11 11 11 11 11 11
19 19 19 19 19 19 19 18 18 18 18 18 18 18 18 18 18 17 17 17 16 15 14 13 13 13 12 12 11 11 11 11 11 10 10 10 10 10 10 10 10 11 11
20 20 20 19 19 19 19 18 18 18 18 18 18 18 18 18 18 18 17 16 16 15 14 14 13 13 13 12 12 11 11 11 10 10 10 10 10 10 10 10 10 10 10
21 21 20 20 20 19 19 19 19 18 18 18 18 18 18 18 18 18 17 16 16 15 14 14 13 13 13 12 12 11 11 10 10 10 10 10 9 9 9 10 10 10 10
21 21 20 20 20 20 19 19 19 19 19 18 18 18 18 18 17 17 17 16 16 15 15 14 13 13 12 12 12 12 11 10 10 10 10 10 9 9 9 9 9 10 10
21 20 20 20 20 20 20 19 19 19 19 19 18 18 18 17 17 17 17 16 16 15 15 14 13 13 12 12 12 12 11 10 10 10 10 10 10 9 9 9 9 10 10
20 20 20 20 20 19 19 19 19 19 19 18 18 17 17 17 17 17 16 16 16 15 14 14 14 13 13 12 12 12 11 11 10 10 10 10 9 9 9 9 10 10 10
20 18 18 19 20 19 19 19 19 18 18 18 17 14 12 14 15 16 16 16 16 15 15 14 13 13 13 12 12 11 11 11 10 10 10 9 9 9 9 9 9 9 10
19 19 19 18 18 19 19 19 18 18 16 16 17 16 10 11 11 15 15 15 15 15 14 14 14 13 13 12 12 11 11 10 10 10 10 9 9 9 9 9 9 9 9
19 19 19 19 19 18 17 17 17 17 16 14 14 16 16 15 11 11 13 14 14 14 14 14 14 13 12 12 12 11 11 10 9 9 10 9 9 8 8 9 9 9 9
18 19 19 19 19 19 18 17 16 16 16 15 14 15 14 13 13 10 10 10 12 13 14 13 13 13 12 12 11 11 10 10 8 9 9 9 8 8 8 8 8 8 7
18 18 18 19 18 17 18 17 17 16 15 15 14 14 14 14 13 10 9 8 9 11 12 12 12 12 11 11 11 10 10 8 7 7 8 8 7 7 7 7 7 7 6
16 16 17 17 17 17 17 17 16 16 16 15 14 13 12 12 13 12 11 9 8 8 9 10 10 10 9 8 8 7 6 5 5 6 5 5 5 5 5 5 6 5 5
14 14 15 15 16 16 16 16 16 15 15 15 15 13 13 12 12 11 12 11 6 5 5 6 7 7 8 7 7 6 4 3 3 4 4 3 3 3 4 4 4 4 4
12 12 13 13 14 15 14 14 14 14 14 14 14 13 13 12 11 11 11 12 11 10 5 3 4 5 6 6 6 5 4 4 3 3 2 2 2 2 2 3 3 3 3
10 11 11 11 11 12 12 13 12 13 13 13 12 12 12 12 11 10 8 8 8 9 7 3 2 3 3 4 4 3 2 2 2 1 1 1 1 2 2 2 2 2 2
8 9 9 9 9 10 10 11 11 11 11 11 11 11 10 9 8 7 6 6 6 6 4 1 2 2 2 2 1 1 1 1 1 1 0 1 1 2 2 2 2 2 2
7 7 8 8 8 9 9 9 8 8 8 8 8 8 8 7 6 5 5 4 4 4 4 1 0 0 -0 0 -0 0 0 1 1 1 0 -0 1 1 1 1 1 1 1
5 5 6 7 6 6 6 6 6 5 5 5 5 4 4 4 4 4 3 3 3 3 3 2 -1 -1 -1 -1 -0 0 1 -0 -0 -1 -0 0 1 1 1 1 1 1 1
3 3 3 3 3 4 4 4 4 3 3 3 3 3 2 2 2 2 2 1 1 1 1 1 -0 -1 -1 -1 -1 -1 -1 -1 -0 -0 -0 0 -0 -1 -0 -0 -0 -1 -1
1 1 1 2 1 2 2 2 2 2 1 1 1 1 1 1 1 1 1 0 0 -0 -0 -0 -1 -1 -1 -1 -1 -0 -1 -0 -0 -1 -0 -1 -1 -1 -1 -1 -1 -1 -1
0 0 1 1 1 1 1 1 1 1 1 1 0 0 0 0 0 0 -0 -0 -0 -1 -1 -1 -1 -1 -1 -0 -0 -1 -1 -2 -2 -2 -2 -2 -2 -1 -1 -1 -1 -2 -1
-1 -0 -0 0 0 0 0 1 0 0 -0 -1 -1 -1 -1 -1 -1 -2 -1 -1 -1 -1 -1 -1 -1 -1 -1 -1 -1 -2 -2 -2 -3 -2 -3 -3 -2 -2 -1 -1 -1 -1 -2
-1 -1 -1 -0 -1 -1 -1 -1 -0 -0 -1 -1 -2 -2 -2 -2 -2 -1 -2 -1 -1 -1 -1 -1 -2 -2 -2 -2 -2 -3 -3 -3 -3 -3 -3 -4 -3 -2 -1 -1 -1 -1 -1
-2 -1 -1 -1 -1 -0 -1 -1 -1 -1 -1 -2 -2 -2 -2 -2 -2 -2 -2 -2 -2 -2 -2 -2 -2 -2 -2 -2 -3 -3 -3 -4 -4 -4 -4 -4 -4 -4 -3 -2 -1 -1 -2
-1 -1 -1 -1 -1 -1 -1 -1 -1 -1 -2 -2 -2 -2 -2 -3 -2 -3 -3 -3 -3 -3 -3 -3 -3 -3 -3 -3 -3 -3 -3 -4 -4 -5 -4 -4 -5 -5 -5 -4 -3 -3 -3
Height
835 836 838 838 839 841 842 843 845 845 846 847 847 848 849 849 849 849 851 851 852 853 852 852 853 854 854 855 855 855 856 857 857 858 858 857 858 859 859 860 860 861 861
832 834 835 836 837 838 839 840 841 843 844 845 846 847 846 846 847 847 847 848 848 850 851 852 851 852 853 854 854 854 854 855 856 856 857 857 857 859 858 859 860 860 860
830 831 832 832 833 835 837 838 839 840 841 842 842 843 844 845 845 844 844 845 846 847 848 849 850 850 851 852 853 853 853 854 854 855 855 855 855 856 858 858 859 860 860
827 828 829 829 830 832 833 834 835 836 836 837 838 839 840 841 843 842 841 842 843 843 844 845 847 847 848 849 851 852 852 852 852 853 853 854 855 855 855 856 857 859 859
823 824 824 824 827 828 829 830 830 831 831 832 833 835 836 837 837 838 838 837 838 839 840 841 843 844 845 846 848 850 850 850 850 851 852 853 853 854 855 855 855 856 858
817 817 819 820 822 823 824 825 825 826 827 827 829 830 831 832 833 833 832 833 833 834 836 837 839 839 841 843 844 846 848 848 848 849 851 851 851 852 853 854 855 855 856
813 814 814 815 816 818 818 820 821 822 821 823 827 828 827 828 828 827 829 829 829 829 830 832 833 836 837 839 841 843 845 847 847 847 848 849 849 850 851 851 853 853 854
809 809 810 811 812 813 813 814 816 816 815 818 821 825 827 825 822 821 822 823 823 824 824 826 827 830 832 834 836 839 842 844 846 846 846 848 848 848 849 850 850 851 851
804 804 805 805 806 807 807 809 810 810 810 810 811 815 824 822 816 813 813 815 816 818 818 820 822 825 827 830 832 834 836 841 844 845 845 846 847 847 847 848 848 848 848
798 799 799 800 801 802 803 803 804 805 805 806 808 807 806 806 811 811 807 806 810 812 815 816 819 821 824 825 827 830 833 836 841 844 844 844 845 846 846 846 846 846 846
794 794 794 795 795 796 797 797 798 798 798 801 799 802 803 803 804 806 806 802 803 803 808 812 813 816 819 821 822 824 829 831 836 840 844 843 843 843 843 844 844 844 843
789 789 789 789 790 791 791 792 794 794 794 794 793 795 795 797 799 802 803 802 801 802 804 806 808 811 814 816 822 824 823 826 830 835 838 841 842 841 841 840 841 841 840
786 785 785 786 786 786 786 788 787 788 788 788 788 788 790 789 790 789 794 796 797 799 799 801 802 803 806 807 810 819 825 822 831 827 832 834 838 839 836 836 836 837 835
785 784 782 781 780 781 782 783 784 783 783 782 782 782 782 782 783 785 766 789 796 796 794 793 796 799 800 804 808 811 808 816 826 824 824 826 828 836 832 833 832 831 830
784 782 781 779 778 778 778 778 780 779 779 778 777 777 777 775 775 775 775 775 780 784 789 789 791 793 797 799 797 806 808 806 816 819 816 819 822 831 827 827 827 826 824
783 781 779 778 776 776 776 775 777 776 777 775 774 774 772 772 772 772 772 773 775 778 778 783 786 789 793 796 798 799 804 808 810 813 815 817 822 824 821 820 822 822 821
783 781 780 777 775 775 773 774 775 775 774 773 772 771 770 770 770 772 773 776 776 777 779 785 787 789 790 789 796 800 801 805 807 809 811 815 817 817 816 816 817 816 814
782 780 779 777 775 774 773 773 774 774 773 772 771 769 768 768 769 771 773 774 775 778 781 779 780 781 794 787 795 800 802 800 805 804 807 809 812 813 813 813 811 808 808
781 780 779 776 777 775 774 774 774 774 774 772 771 773 773 772 769 770 774 775 775 777 777 782 784 787 790 790 794 797 795 799 801 803 806 808 809 809 807 806 804 802 801
783 782 781 779 778 776 776 776 776 776 776 774 773 774 775 776 774 775 778 778 778 780 781 783 783 785 789 791 794 796 797 798 799 801 804 804 803 802 801 800 798 798 796
787 786 784 781 781 779 779 779 778 778 779 778 778 779 779 780 780 780 780 780 782 783 782 782 784 789 791 792 793 794 795 797 798 799 798 797 797 796 795 794 792 792 791
791 788 786 785 785 785 785 782 783 783 782 781 783 782 783 783 785 786 782 782 784 785 785 787 789 790 790 791 792 793 794 795 796 796 794 793 793 790 789 788 787 787 787
794 791 790 791 792 791 790 789 788 787 787 787 786 786 786 787 786 785 785 786 787 787 788 788 789 789 790 791 791 792 793 793 793 792 792 787 786 784 784 783 783 782 782
795 795 796 797 797 796 795 794 792 791 791 791 790 790 790 790 789 789 788 787 787 787 788 788 788 789 790 790 791 791 790 790 789 788 788 785 782 780 779 777 776 776 776
798 799 800 801 800 799 798 797 796 795 794 793 792 792 791 791 791 789 788 787 788 787 788 789 789 789 789 788 788 788 788 788 788 786 785 784 781 777 774 771 772 773 773
801 803 804 803 802 800 800 800 798 797 795 793 793 792 792 791 791 790 789 788 788 788 788 787 786 786 785 785 785 784 784 784 786 785 783 783 780 778 773 768 768 768 766
Wind_Speed
23 20 15 14 14 17 16 15 13 12 14 12 11 11 12 11 13 11 12 11 10 9 11 12 12 11 11 10 10 10 10 10 10 10 10 11 10 10 10 11 11 11 11
21 23 18 17 16 16 17 18 17 16 16 16 15 15 14 13 14 13 14 14 13 12 12 12 13 13 12 11 11 11 11 10 10 10 9 10 10 9 9 9 9 9 9
21 23 21 21 21 19 17 20 20 21 21 22 18 18 18 16 16 18 16 16 16 15 15 15 15 14 14 13 12 11 11 10 10 9 9 9 9 9 8 7 7 7 7
25 24 25 24 21 24 23 22 21 22 24 24 21 21 20 19 18 19 18 18 18 18 18 18 19 17 17 15 14 13 12 11 10 9 8 8 7 7 7 6 6 4 4
26 29 29 28 27 25 27 28 28 27 25 25 23 23 22 23 23 21 21 22 21 21 20 20 23 21 20 18 17 16 14 13 11 10 9 8 6 6 5 5 5 4 2
27 31 32 33 30 29 29 28 32 32 30 28 25 24 25 24 26 26 25 25 26 24 23 22 26 26 24 22 20 18 16 14 13 10 10 9 8 6 5 4 3 2 1
24 30 35 34 34 33 34 35 31 32 32 29 20 20 23 24 27 30 28 27 28 28 26 26 26 27 27 26 22 20 18 16 14 12 10 9 9 8 7 5 4 3 2
30 22 27 34 34 37 35 35 36 33 34 31 18 4 2 10 26 31 30 31 32 31 31 30 30 28 28 28 28 23 21 18 16 13 11 10 10 9 8 7 6 5 5
26 29 27 25 32 35 37 37 37 38 28 32 34 15 2 6 3 22 38 36 36 35 35 35 32 30 29 28 29 27 26 20 17 15 12 12 11 10 8 7 6 6 6
24 21 21 26 32 29 32 36 35 36 36 26 29 37 25 6 4 2 12 33 38 35 35 35 34 31 30 29 28 28 28 25 17 15 14 13 11 10 8 8 8 8 8
18 24 22 22 23 25 28 30 30 29 35 30 31 26 31 21 11 3 4 6 27 36 34 33 34 33 31 30 29 28 24 20 15 15 14 13 11 10 9 9 9 9 9
13 14 22 23 25 24 24 25 29 29 28 31 27 31 28 16 22 9 3 4 6 13 27 27 30 33 30 29 28 27 25 21 16 14 13 11 11 10 10 10 11 10 11
9 9 9 12 18 22 23 24 25 28 30 30 30 30 33 29 26 26 17 5 4 7 10 21 24 28 32 31 29 21 15 14 15 14 11 9 10 12 11 12 12 13 14
8 9 9 9 8 10 17 20 21 23 26 30 33 31 32 34 32 28 22 15 2 4 7 9 20 21 26 30 29 28 28 20 23 22 23 17 15 17 14 15 15 16 15
12 12 12 11 9 7 10 14 16 16 20 25 29 26 27 28 33 33 33 30 21 8 8 15 12 21 23 27 30 29 28 26 28 26 22 17 17 22 19 19 18 17 16
12 12 11 11 9 7 6 8 11 17 20 21 22 25 21 24 22 22 20 16 15 15 4 13 15 13 20 22 23 24 24 25 24 18 16 17 22 23 21 18 18 18 18
11 12 12 11 11 10 10 10 13 17 18 18 17 13 11 10 11 11 10 12 10 11 2 4 10 13 19 22 22 25 24 24 22 21 21 24 23 20 17 17 17 18 17
8 10 10 10 10 11 11 10 10 10 8 7 7 7 6 6 4 4 4 3 2 5 5 5 9 11 15 19 24 22 17 16 21 21 21 17 16 16 17 17 16 16 16
9 8 9 10 10 10 10 9 7 5 4 3 3 4 3 2 3 2 2 3 5 3 5 6 5 9 8 10 14 15 13 17 15 13 12 14 14 13 15 17 16 14 14
11 11 11 11 11 10 9 7 6 6 6 7 6 6 5 4 5 6 7 7 7 6 6 9 5 6 4 6 11 10 8 9 10 8 10 14 14 15 14 13 12 14 14
12 13 15 18 17 18 13 9 10 10 11 13 14 15 14 10 7 5 6 8 7 7 7 5 5 2 3 4 7 4 8 7 8 9 12 12 8 12 13 16 15 14 13
15 18 20 21 20 19 16 15 14 15 15 15 14 13 13 12 12 9 10 8 7 5 4 2 3 3 4 4 5 6 6 4 2 4 6 18 17 16 10 11 11 11 13
16 20 21 20 19 17 15 13 13 15 14 12 11 9 9 8 7 7 6 4 4 3 2 0 2 1 1 1 2 3 5 6 6 11 13 15 15 16 10 13 13 13 14
16 17 17 16 16 14 13 13 13 13 13 13 12 11 9 8 7 6 5 5 5 3 2 2 3 3 3 4 5 7 7 8 12 16 12 6 8 16 14 18 14 8 5
15 19 17 15 15 14 10 10 11 10 10 10 8 8 6 6 6 6 5 4 3 2 2 2 3 5 7 8 7 9 9 10 8 4 11 9 6 14 19 6 1 2 7
13 14 11 10 10 13 11 9 6 6 7 6 5 6 6 7 5 5 7 5 4 3 5 9 10 8 8 8 7 8 9 9 8 6 0 6 4 8 9 6 5 15 19
Wind_Direction
209 211 223 223 220 217 221 224 225 228 214 214 209 221 218 228 223 222 220 224 227 210 181 176 173 170 166 163 156 148 143 138 131 123 119 114 110 106 100 96 92 88 82
218 219 227 227 226 222 223 226 230 232 219 218 229 226 224 223 224 230 216 223 223 226 200 190 185 182 180 178 173 163 157 154 145 138 132 126 122 115 111 104 97 92 87
224 224 226 231 229 225 228 229 234 235 231 217 231 226 230 227 222 230 223 221 223 227 221 200 197 194 191 188 187 178 169 164 158 152 148 142 136 130 123 114 107 99 90
229 229 230 231 237 231 223 224 229 227 220 222 227 226 230 228 226 231 232 227 224 225 225 213 204 202 200 197 196 192 186 180 174 170 163 157 147 139 135 131 123 110 100
235 233 234 235 233 234 230 228 228 230 225 223 224 225 228 231 231 225 229 231 228 229 231 221 212 208 205 203 202 201 198 192 188 186 181 175 167 160 150 144 141 130 126
243 236 236 240 237 234 236 233 230 229 233 232 223 225 231 234 234 231 227 229 230 228 228 227 220 219 214 207 207 208 206 201 195 196 193 192 189 187 179 175 179 164 167
240 245 241 242 239 237 237 238 238 231 229 229 216 226 233 239 233 235 234 230 228 230 228 226 226 226 222 217 211 211 209 209 206 201 203 206 202 199 199 193 211 224 242
250 249 248 244 246 239 239 239 239 231 229 223 203 176 236 250 235 232 230 231 230 227 230 227 224 228 226 223 220 210 212 213 217 216 218 219 215 206 209 213 212 228 240
265 263 251 252 248 246 242 243 244 240 230 220 213 195 147 225 216 232 232 232 231 229 227 230 231 227 227 229 226 219 215 213 220 224 226 222 220 212 213 224 236 245 256
272 265 268 262 259 259 255 251 253 244 234 225 219 220 225 176 194 278 234 233 232 232 233 227 231 231 230 231 229 226 226 226 226 235 230 219 219 223 231 238 250 260 265
283 272 266 262 266 265 265 258 253 251 244 234 221 223 230 236 240 172 247 246 228 229 231 233 230 233 234 233 228 223 224 226 224 232 236 230 226 234 244 255 263 267 275
309 295 270 274 271 268 268 269 269 266 259 245 236 226 222 222 233 213 229 254 251 228 229 229 231 230 230 236 234 222 214 227 222 223 226 237 246 246 255 260 269 276 281
345 330 322 294 284 278 276 277 275 274 273 264 249 237 235 233 230 220 224 188 201 208 207 221 225 226 222 222 211 197 213 203 211 203 215 237 264 266 268 271 270 276 281
341 323 313 327 306 289 284 275 280 282 280 278 276 254 241 235 233 234 202 212 212 212 194 206 214 218 213 205 206 218 206 214 230 233 235 227 246 264 266 275 275 276 280
329 323 321 322 330 310 280 281 281 292 290 286 284 273 259 245 242 242 242 225 224 231 223 209 192 198 199 203 209 229 235 236 231 238 236 229 241 262 270 275 274 271 274
334 332 332 332 327 328 318 305 303 296 293 291 289 281 261 246 240 237 246 234 233 254 230 199 205 200 212 225 226 226 220 223 235 233 232 247 254 264 269 269 271 274 276
354 352 348 353 356 348 335 330 306 291 290 286 278 267 252 246 233 239 247 251 244 258 248 195 212 212 208 206 211 221 227 241 245 242 247 258 266 266 266 267 271 274 277
18 11 6 8 5 354 350 337 327 324 312 304 300 266 236 231 232 257 270 271 256 187 218 175 184 199 221 209 226 234 240 246 253 255 258 260 260 263 266 268 271 276 279
33 27 23 24 22 26 27 20 13 5 2 15 10 356 337 276 155 136 165 158 157 182 193 189 144 190 209 208 221 234 241 244 253 260 252 252 254 259 268 274 276 279 279
51 54 56 57 51 43 36 36 40 40 47 52 62 54 47 49 83 109 128 126 128 133 128 144 117 148 176 204 210 226 245 253 254 248 238 257 272 274 271 274 277 283 280
79 82 77 68 61 56 50 58 67 73 79 79 78 76 64 60 66 85 106 105 105 111 108 98 105 138 179 180 213 226 225 234 249 264 276 279 284 275 276 280 279 284 283
82 77 71 70 65 61 63 70 86 93 93 91 86 85 88 88 81 68 72 73 72 80 97 127 151 166 173 202 213 209 199 219 285 214 290 296 295 292 292 295 295 289 285
81 76 80 78 73 70 68 73 83 89 89 87 82 78 76 69 63 57 57 63 76 67 56 215 196 180 197 174 220 264 262 264 264 289 300 299 308 301 315 307 300 291 287
84 87 87 86 80 71 70 71 74 78 79 74 67 61 58 51 39 28 21 17 24 11 334 308 303 265 276 278 288 290 288 290 291 293 294 268 293 301 315 311 302 281 284
91 86 87 87 85 74 63 60 65 69 73 68 61 54 48 38 27 19 354 355 317 340 188 283 292 295 296 287 280 280 282 296 312 292 310 265 297 321 315 327 314 247 294
97 99 94 81 71 73 60 56 65 61 57 48 39 20 21 14 7 2 343 331 321 293 299 290 290 293 291 279 279 273 280 268 273 301 235 337 304 354 326 298 297 299 304